Powrót do katalogu

STARLINK-36398

AktywnyŁącznośćSSO
NORAD 67562·PAYLOAD·🇺🇸 United States

Wystrzelony Jan 25, 2026 z Vandenberg Space Force Base

Loading…

Następne Przeloty (najbliższe 24 godziny)

TLE

ŚwieżeSource: CelesTrak SupGP

Epoka: Sep 15, 2026, 04:07 UTC

1 67562C 26016B   26258.17201389 -.00055435  00000+0 -17209-2 0  2587
2 67562  97.2847 316.9642 0000976  91.5329  47.6087 15.33466379    17

Śledź STARLINK-36398 w czasie rzeczywistym z AllMySat

Download on the App Store